Weather History for KNSE - January, 2013

Change the Weather History Date:

Thursday, January 31, 2013

  Actual Average Record
Temperature  
Mean Temperature 45 °F -  
Max Temperature 57 °F 59 °F 73 °F (2002)
Min Temperature 33 °F 42 °F 26 °F (2014)
Degree Days  
Heating Degree Days 20    
Moisture  
Dew Point 28 °F    
Average Humidity 51    
Maximum Humidity 89    
Minimum Humidity 26    
Precipitation  
Precipitation 0.00 in - - ()
Sea Level Pressure  
Sea Level Pressure 30.19 in    
Wind  
Wind Speed 9 mph (WNW)    
Max Wind Speed 18 mph    
Max Gust Speed 25 mph    
Visibility 10 miles    
Events      
Averages and records for this station are not official NWS values.
T = Trace of Precipitation, MM = Missing Value Source: NWS Daily Summary

Daily Weather History Graph

Daily Weather History Graph

Search for Another Location

Airport or City:

Trip Planner

Search our weather history database for the weather conditions in past years. The results will help you decide how hot, cold, wet, or windy it might be!

Date:

Astronomy

Jan. 31, 2013 Rise Set
Actual Time 6:39 AM CST 5:23 PM CST
Civil Twilight 6:14 AM CST 5:48 PM CST
Nautical Twilight 5:45 AM CST 6:17 PM CST
Astronomical Twilight 5:17 AM CST 6:46 PM CST
Moon 10:00 PM CST (1/31) 9:02 AM CST (1/31)
Length of Visible Light 11h 34m
Length of Day
10h 43m
Waning Gibbous, 79% of the Moon is Illuminated
Jan 31
Waning Gibbous
Feb 3
Last Quarter
Feb 10
New
Feb 17
First Quarter
Feb 25
Full

Hourly Weather History & Observations

Time (CST) Temp. Windchill Dew Point Humidity Pressure Visibility Wind Dir Wind Speed Gust Speed Precip Events Conditions
12:56 AM 45.0 °F 39.3 °F 28.9 °F 53% 30.08 in 10.0 mi NW 11.5 mph - N/A   Clear
1:56 AM 44.1 °F 39.5 °F 28.0 °F 53% 30.09 in 10.0 mi NW 8.1 mph 18.4 mph N/A   Clear
2:56 AM 42.1 °F 36.6 °F 28.9 °F 60% 30.11 in 10.0 mi WNW 9.2 mph - N/A   Clear
3:56 AM 43.0 °F 37.2 °F 28.0 °F 56% 30.12 in 10.0 mi NW 10.4 mph - N/A   Clear
4:56 AM 41.0 °F 36.4 °F 28.0 °F 60% 30.12 in 10.0 mi NW 6.9 mph - N/A   Clear
5:56 AM 37.9 °F 34.4 °F 28.0 °F 68% 30.14 in 10.0 mi WNW 4.6 mph - N/A   Clear
6:56 AM 33.1 °F 30.0 °F 30.0 °F 89% 30.16 in 10.0 mi West 3.5 mph - N/A   Clear
7:56 AM 37.9 °F 33.5 °F 31.1 °F 76% 30.19 in 10.0 mi WNW 5.8 mph - N/A   Clear
8:56 AM 44.1 °F 38.6 °F 31.1 °F 60% 30.22 in 10.0 mi NW 10.4 mph - N/A   Clear
9:56 AM 48.9 °F - 26.1 °F 41% 30.23 in 10.0 mi NNW 13.8 mph 19.6 mph N/A   Clear
10:56 AM 54.0 °F - 24.1 °F 31% 30.23 in 10.0 mi NNW 17.3 mph 23.0 mph N/A   Clear
11:56 AM 55.0 °F - 23.0 °F 29% 30.22 in 10.0 mi NW 15.0 mph 21.9 mph N/A   Clear
12:56 PM 57.0 °F - 22.1 °F 26% 30.20 in 10.0 mi North 18.4 mph 25.3 mph N/A   Clear
1:56 PM 57.0 °F - 22.1 °F 26% 30.18 in 10.0 mi North 12.7 mph 20.7 mph N/A   Partly Cloudy
2:56 PM 57.0 °F - 22.1 °F 26% 30.18 in 10.0 mi NNW 10.4 mph - N/A   Partly Cloudy
3:56 PM 57.9 °F - 24.1 °F 27% 30.18 in 10.0 mi NNW 6.9 mph - N/A   Partly Cloudy
4:56 PM 55.0 °F - 23.0 °F 29% 30.20 in 10.0 mi WNW 5.8 mph - N/A   Partly Cloudy
5:56 PM 48.0 °F - 28.9 °F 48% 30.22 in 10.0 mi WSW 3.5 mph - N/A   Partly Cloudy
6:56 PM 45.0 °F - 30.0 °F 56% 30.23 in 10.0 mi Calm Calm - N/A   Partly Cloudy
7:56 PM 46.0 °F - 28.9 °F 51% 30.25 in 10.0 mi Calm Calm - N/A   Scattered Clouds
8:56 PM 46.9 °F - 32.0 °F 56% 30.25 in 10.0 mi WSW 6.9 mph - N/A   Scattered Clouds
9:56 PM 44.1 °F 40.1 °F 33.1 °F 65% 30.25 in 10.0 mi WSW 6.9 mph - N/A   Scattered Clouds
10:56 PM 42.1 °F 38.4 °F 33.1 °F 70% 30.28 in 10.0 mi West 5.8 mph - N/A   Scattered Clouds
11:56 PM 45.0 °F 41.8 °F 34.0 °F 65% 30.28 in 10.0 mi West 5.8 mph - N/A   Clear